| time (UTC) | temp F | wind direction | speed MPH | gust MPH | rain 1hr in | rain 24hr in | rain mn in | humidity % | barometer mb |
| 20260901181559 | 61 | 171 | 0.0 | 3.0 | 0.00 | 0.00 | 0.00 | 86 | 1008.1 |
| 20260901180053 | 61 | 186 | 0.0 | 4.0 | 0.00 | 0.00 | 0.00 | 87 | 1008.3 |
| 20260901174551 | 61 | 100 | 0.0 | 2.0 | 0.00 | 0.00 | 0.00 | 88 | 1008.3 |
| 20260901173059 | 61 | 100 | 0.0 | 3.0 | 0.00 | 0.00 | 0.00 | 86 | 1008.0 |
| 20260901171559 | 61 | 71 | 1.0 | 2.0 | 0.00 | 0.00 | 0.00 | 87 | 1008.1 |
| 20260901170049 | 60 | 115 | 0.0 | 2.0 | 0.00 | 0.00 | 0.00 | 89 | 1008.0 |
| 20260901164552 | 60 | 115 | 0.0 | 3.0 | 0.00 | 0.00 | 0.00 | 90 | 1007.9 |
| 20260901163043 | 60 | 318 | 0.0 | 1.0 | 0.00 | 0.00 | 0.00 | 90 | 1007.9 |
| 20260901161544 | 59 | 318 | 0.0 | 1.0 | 0.00 | 0.00 | 0.00 | 91 | 1007.9 |
| 20260901160039 | 59 | 317 | 0.0 | 1.0 | 0.00 | 0.00 | 0.00 | 92 | 1008.1 |
| 20260901154538 | 58 | 317 | 0.0 | 2.0 | 0.00 | 0.00 | 0.00 | 92 | 1008.1 |
| 20260901153036 | 58 | 331 | 0.0 | 1.0 | 0.00 | 0.00 | 0.00 | 93 | 1008.1 |
| 20260901151541 | 58 | 331 | 0.0 | 1.0 | 0.00 | 0.00 | 0.00 | 93 | 1008.2 |
| 20260901150032 | 58 | 331 | 0.0 | 1.0 | 0.00 | 0.00 | 0.00 | 94 | 1008.1 |
| 20260901144529 | 58 | 331 | 0.0 | 1.0 | 0.00 | 0.00 | 0.00 | 94 | 1007.9 |
| 20260901143029 | 58 | 331 | 0.0 | 1.0 | 0.00 | 0.00 | 0.00 | 94 | 1007.9 |
| 20260901141524 | 58 | 331 | 0.0 | 0.0 | 0.00 | 0.00 | 0.00 | 93 | 1007.8 |
| 20260901140024 | 58 | 331 | 0.0 | 1.0 | 0.00 | 0.00 | 0.00 | 93 | 1007.7 |
| 20260901134531 | 58 | 331 | 0.0 | 0.0 | 0.00 | 0.00 | 0.00 | 92 | 1007.6 |
| 20260901133025 | 58 | 331 | 0.0 | 1.0 | 0.00 | 0.00 | 0.00 | 92 | 1007.6 |
| 20260901131517 | 59 | 339 | 0.0 | 0.0 | 0.00 | 0.00 | 0.00 | 91 | 1007.6 |
| 20260901130016 | 59 | 339 | 0.0 | 1.0 | 0.00 | 0.00 | 0.00 | 90 | 1007.4 |
| 20260901124515 | 59 | 339 | 0.0 | 0.0 | 0.00 | 0.00 | 0.00 | 90 | 1007.2 |
| 20260901123024 | 59 | 339 | 0.0 | 0.0 | 0.00 | 0.00 | 0.00 | 89 | 1007.1 |
| 20260901121513 | 59 | 339 | 0.0 | 0.0 | 0.00 | 0.00 | 0.00 | 88 | 1007.3 |
| 20260901120011 | 59 | 339 | 0.0 | 1.0 | 0.00 | 0.00 | 0.00 | 89 | 1007.3 |
| 20260901114510 | 59 | 339 | 0.0 | 1.0 | 0.00 | 0.00 | 0.00 | 89 | 1007.2 |
| 20260901113009 | 59 | 339 | 0.0 | 0.0 | 0.00 | 0.00 | 0.00 | 89 | 1007.1 |
| 20260901111508 | 59 | 339 | 0.0 | 1.0 | 0.00 | 0.00 | 0.00 | 89 | 1007.1 |
| 20260901110007 | 59 | 339 | 0.0 | 1.0 | 0.00 | 0.00 | 0.00 | 89 | 1007.0 |
| 20260901104506 | 58 | 339 | 0.0 | 1.0 | 0.00 | 0.00 | 0.00 | 90 | 1007.0 |
| 20260901103004 | 58 | 339 | 0.0 | 1.0 | 0.00 | 0.00 | 0.00 | 90 | 1006.9 |
| 20260901101506 | 58 | 339 | 0.0 | 1.0 | 0.00 | 0.00 | 0.00 | 89 | 1006.8 |
| 20260901100110 | 58 | 339 | 0.0 | 2.0 | 0.00 | 0.00 | 0.00 | 89 | 1006.7 |
| 20260901094559 | 59 | 334 | 0.0 | 2.0 | 0.00 | 0.00 | 0.00 | 88 | 1006.6 |
| 20260901093104 | 59 | 344 | 0.0 | 2.0 | 0.00 | 0.00 | 0.00 | 88 | 1006.6 |
| 20260901091602 | 60 | 345 | 0.0 | 3.0 | 0.00 | 0.00 | 0.00 | 88 | 1006.3 |
| 20260901090051 | 60 | 355 | 0.0 | 3.0 | 0.00 | 0.00 | 0.00 | 88 | 1006.2 |
| 20260901084549 | 60 | 19 | 0.0 | 2.0 | 0.00 | 0.00 | 0.00 | 87 | 1006.2 |
| 20260901083048 | 60 | 120 | 0.0 | 1.0 | 0.00 | 0.00 | 0.00 | 87 | 1006.3 |
| 20260901081544 | 61 | 121 | 0.0 | 1.0 | 0.00 | 0.00 | 0.00 | 85 | 1006.3 |
| 20260901080041 | 61 | 61 | 0.0 | 4.0 | 0.00 | 0.00 | 0.00 | 85 | 1006.2 |
| 20260901074539 | 62 | 285 | 1.0 | 4.0 | 0.00 | 0.00 | 0.00 | 84 | 1006.1 |
| 20260901073045 | 62 | 46 | 0.0 | 2.0 | 0.00 | 0.00 | 0.00 | 83 | 1005.9 |
| 20260901071534 | 63 | 341 | 0.0 | 1.0 | 0.00 | 0.00 | 0.00 | 82 | 1005.7 |
| 20260901070030 | 64 | 315 | 1.0 | 3.0 | 0.00 | 0.00 | 0.00 | 80 | 1005.3 |
| 20260901064536 | 64 | 115 | 0.0 | 4.0 | 0.00 | 0.00 | 0.00 | 79 | 1005.1 |
| 20260901063034 | 64 | 317 | 1.0 | 3.0 | 0.00 | 0.00 | 0.00 | 79 | 1004.9 |
| 20260901061529 | 65 | 309 | 0.0 | 4.0 | 0.00 | 0.00 | 0.00 | 77 | 1004.9 |
| 20260901060029 | 66 | 290 | 1.0 | 4.0 | 0.00 | 0.00 | 0.00 | 75 | 1004.8 |
| 20260901054528 | 66 | 286 | 0.0 | 6.0 | 0.00 | 0.00 | 0.00 | 74 | 1004.7 |
| 20260901053027 | 66 | 323 | 0.0 | 3.0 | 0.00 | 0.00 | 0.00 | 74 | 1004.7 |
| 20260901051528 | 67 | 44 | 0.0 | 2.0 | 0.00 | 0.00 | 0.00 | 72 | 1004.6 |
| 20260901050026 | 68 | 285 | 1.0 | 5.0 | 0.00 | 0.00 | 0.00 | 70 | 1004.4 |
| 20260901044525 | 69 | 269 | 1.0 | 3.0 | 0.00 | 0.00 | 0.00 | 68 | 1004.2 |
| 20260901043025 | 70 | 292 | 1.0 | 3.0 | 0.00 | 0.00 | 0.00 | 66 | 1004.1 |
| 20260901041526 | 70 | 284 | 1.0 | 3.0 | 0.00 | 0.00 | 0.00 | 65 | 1004.1 |
| 20260901040031 | 71 | 264 | 1.0 | 3.0 | 0.00 | 0.00 | 0.00 | 63 | 1004.1 |
| 20260901034522 | 71 | 261 | 1.0 | 2.0 | 0.00 | 0.00 | 0.00 | 62 | 1004.0 |
| 20260901033023 | 72 | 223 | 0.0 | 2.0 | 0.00 | 0.00 | 0.00 | 62 | 1003.5 |
| 20260901031521 | 72 | 348 | 0.0 | 1.0 | 0.00 | 0.00 | 0.00 | 61 | 1003.3 |
| 20260901030021 | 73 | 348 | 0.0 | 2.0 | 0.00 | 0.00 | 0.00 | 61 | 1003.4 |
| 20260901024527 | 73 | 355 | 0.0 | 1.0 | 0.00 | 0.00 | 0.00 | 59 | 1003.1 |
| 20260901023022 | 74 | 355 | 0.0 | 1.0 | 0.00 | 0.00 | 0.00 | 60 | 1003.1 |
| 20260901021520 | 75 | 355 | 0.0 | 1.0 | 0.00 | 0.00 | 0.00 | 63 | 1003.0 |
| 20260901020019 | 76 | 355 | 0.0 | 1.0 | 0.00 | 0.00 | 0.00 | 64 | 1003.1 |
| 20260901014519 | 77 | 355 | 0.0 | 1.0 | 0.00 | 0.00 | 0.00 | 60 | 1003.0 |
| 20260901013021 | 77 | 355 | 0.0 | 1.0 | 0.00 | 0.00 | 0.00 | 59 | 1003.0 |
| 20260901011618 | 79 | 355 | 0.0 | 0.0 | 0.00 | 0.00 | 0.00 | 57 | 1003.1 |
| 20260901010017 | 81 | 355 | 0.0 | 1.0 | 0.00 | 0.00 | 0.00 | 51 | 1003.0 |
| 20260901004529 | 82 | 350 | 0.0 | 2.0 | 0.00 | 0.00 | 0.00 | 45 | 1003.0 |
| 20260901003014 | 83 | 5 | 0.0 | 4.0 | 0.00 | 0.00 | 0.00 | 46 | 1003.1 |
| 20260901001522 | 82 | 275 | 0.0 | 2.0 | 0.00 | 0.00 | 0.00 | 45 | 1003.2 |
| 20260901000013 | 83 | 333 | 1.0 | 5.0 | 0.00 | 0.00 | 0.00 | 43 | 1003.2 |
| 20260831234506 | 83 | 69 | 0.0 | 3.0 | 0.00 | 0.00 | 0.00 | 46 | 1003.2 |
| 20260831233002 | 84 | 122 | 0.0 | 4.0 | 0.00 | 0.00 | 0.00 | 44 | 1003.4 |
| 20260831231601 | 84 | 323 | 1.0 | 3.0 | 0.00 | 0.00 | 0.00 | 43 | 1003.6 |
| 20260831230058 | 84 | 81 | 0.0 | 4.0 | 0.00 | 0.00 | 0.00 | 43 | 1003.6 |
| 20260831224551 | 84 | 340 | 1.0 | 3.0 | 0.00 | 0.00 | 0.00 | 40 | 1003.6 |
| 20260831223047 | 83 | 160 | 1.0 | 4.0 | 0.00 | 0.00 | 0.00 | 43 | 1003.8 |
| 20260831221543 | 83 | 93 | 1.0 | 4.0 | 0.00 | 0.00 | 0.00 | 43 | 1003.7 |
| 20260831220039 | 82 | 159 | 1.0 | 4.0 | 0.00 | 0.00 | 0.00 | 44 | 1004.1 |
| 20260831214559 | 81 | 108 | 1.0 | 2.0 | 0.00 | 0.00 | 0.00 | 47 | 1004.2 |
| 20260831213032 | 80 | 88 | 1.0 | 4.0 | 0.00 | 0.00 | 0.00 | 47 | 1004.2 |
| 20260831211529 | 81 | 78 | 1.0 | 4.0 | 0.00 | 0.00 | 0.00 | 45 | 1004.1 |
| 20260831210028 | 81 | 309 | 1.0 | 4.0 | 0.00 | 0.00 | 0.00 | 49 | 1004.6 |
| 20260831204520 | 80 | 88 | 1.0 | 6.0 | 0.00 | 0.00 | 0.00 | 49 | 1004.7 |
| 20260831203015 | 79 | 346 | 1.0 | 4.0 | 0.00 | 0.00 | 0.00 | 49 | 1004.8 |
| 20260831201516 | 79 | 265 | 0.0 | 4.0 | 0.00 | 0.00 | 0.00 | 51 | 1005.0 |
| 20260831200012 | 78 | 264 | 1.0 | 4.0 | 0.00 | 0.00 | 0.00 | 53 | 1005.1 |
| 20260831194504 | 76 | 294 | 0.0 | 3.0 | 0.00 | 0.00 | 0.00 | 54 | 1005.4 |
| 20260831193004 | 76 | 327 | 1.0 | 4.0 | 0.00 | 0.00 | 0.00 | 55 | 1005.5 |
| 20260831191600 | 75 | 256 | 1.0 | 4.0 | 0.00 | 0.00 | 0.00 | 58 | 1005.5 |
| 20260831190112 | 73 | 213 | 1.0 | 3.0 | 0.00 | 0.00 | 0.00 | 62 | 1005.9 |
| 20260831184549 | 73 | 78 | 1.0 | 5.0 | 0.00 | 0.00 | 0.00 | 62 | 1006.1 |
| 20260831183057 | 71 | 241 | 1.0 | 4.0 | 0.00 | 0.00 | 0.00 | 63 | 1006.4 |